Regional Weather Roundup
Issued by NWS Spokane, WA

Home | Current Version | Previous Version | Text Only | Print | Product List | Glossary On
Versions: 1 2 3 4 5 6 7 8 9 10 11 12 13 14 15 16 17 18 19 20 21 22 23 24 25 26 27 28 29 30 31 32 33 34 35 36 37 38 39 40 41 42 43 44 45 46 47 48 49 50
000
NZUS01 KOTX 180710
RWROTX
EASTERN WASHINGTON/NORTHERN IDAHO ROUNDUP
NATIONAL WEATHER SERVICE, SPOKANE WA
1100 PM PST WED DEC 17 2014

Note: "fair" indicated few or no clouds below 12,000 feet with no
significant weather and/or obstructions to visibility.

...NORTHEAST WASHINGTON AND NORTHERN IDAHO PANHANDLE...

CITY           SKY/WX    TMP DP  RH WIND       PRES   REMARKS
SPOKANE INTL   LGT RAIN  35  33  92 NE6       29.95S
SPOKANE DOWNTO CLOUDY    37  33  85 E3        29.98R
COEUR D ALENE  CLOUDY    34  32  93 NE7       29.96S WCI  28
DEER PARK      CLOUDY    34  33  96 CALM      29.97R
SANDPOINT      LGT SNOW  32  32 100 CALM      29.98S

...SOUTHEAST WASHINGTON AND SOUTHERN IDAHO PANHANDLE...

CITY           SKY/WX    TMP DP  RH WIND       PRES   REMARKS
WALLA WALLA    LGT RAIN  38  36  92 S5        30.01S FOG
PULLMAN/MOSCOW CLOUDY    39  34  82 E3        29.97R
LEWISTON       CLOUDY    38  36  92 CALM      29.98R
LOWELL           N/A     35  33  92 N3        30.04R

...COLUMBIA BASIN...

CITY           SKY/WX    TMP DP  RH WIND       PRES   REMARKS
EPHRATA        CLOUDY    38  34  85 W5        29.96S
MOSES LAKE     CLOUDY    36  34  92 SW3       29.98S
TRI CITIES     CLOUDY    39  39 100 S3        30.03S
HERMISTON      MOCLDY    37  35  92 SE3       30.01S FOG
PENDLETON      FOG       35  35 100 SE3       29.98F VSB 1/4

...EAST SLOPES CASCADES...

CITY           SKY/WX    TMP DP  RH WIND       PRES   REMARKS
THE DALLES     CLOUDY    40  38  93 CALM      30.04R
YAKIMA         CLOUDY    39  36  89 CALM      29.99R
ELLENSBURG     FOG       35  32  88 CALM      29.96R VSB 1/2
WENATCHEE      CLOUDY    37  35  92 CALM      29.97S
OMAK           LGT RAIN  33  32  96 CALM      29.98S FOG

...SOUTHERN BRITISH COLUMBIA...

CITY           SKY/WX    TMP DP  RH WIND       PRES   REMARKS

...WESTERN MONTANA...

CITY           SKY/WX    TMP DP  RH WIND       PRES   REMARKS
MISSOULA       CLOUDY    28  25  88 CALM      30.00R

...NEIGHBORING CITIES...

CITY           SKY/WX    TMP DP  RH WIND       PRES   REMARKS
SEATTLE        CLOUDY    45  43  93 CALM      29.93R
CALGARY        PTCLDY    32  16  51 CALM      29.80S



USA.gov is the U.S. government's official web portal to all federal, state and local government web resources and services.